Location: East Irvine
(33.6759°N, 117.7598°W)
Time: 23:08:42
(UTC+00:00)

Cosmos 2034 Rocket - Pass Details

Date: 15 November 2025
Orbit: 958 x 998 km, 82.9° (Epoch: 13 December)

Event Time Altitude Azimuth Distance (km) Brightness Sun altitude
Rises 02:34:54 0° 181° (S) 3,625 7.1 -22.2°
Reaches altitude 10° 02:37:22 10° 180° (S) 2,685 6.4 -22.7°
Maximum altitude 02:43:30 81° 95° (E) 981 3.8 -24.0°
Drops below altitude 10° 02:49:45 10° 8° (N) 2,723 6.2 -25.3°
Sets 02:52:16 0° 8° (N) 3,680 6.9 -25.8°
